| time (UTC) | temp C | wind direction | speed KPH | gust KPH | rain 1hr cm | rain 24hr cm | rain mn cm | humidity % | barometer mb |
| 20260505093058 | 15 | 280 | 4.8 | 9.7 | 0.00 | 0.84 | 0.15 | 91 | 1009.5 |
| 20260505092557 | 15 | 360 | 1.6 | 9.7 | 0.00 | 0.84 | 0.15 | 92 | 1009.5 |
| 20260505092057 | 15 | 360 | 3.2 | 9.7 | 0.00 | 0.84 | 0.15 | 93 | 1009.6 |
| 20260505091618 | 15 | 360 | 0.0 | 1.6 | 0.00 | 0.84 | 0.15 | 93 | 1009.6 |
| 20260505091056 | 15 | 0 | 0.0 | 3.2 | 0.00 | 0.84 | 0.15 | 94 | 1009.7 |
| 20260505090557 | 15 | 0 | 0.0 | 6.4 | 0.00 | 0.84 | 0.15 | 94 | 1009.7 |
| 20260505090122 | 15 | 0 | 1.6 | 6.4 | 0.00 | 0.84 | 0.15 | 94 | 1009.7 |
| 20260505085557 | 15 | 0 | 0.0 | 4.8 | 0.00 | 0.84 | 0.15 | 94 | 1009.7 |
| 20260505085059 | 14 | 323 | 0.0 | 4.8 | 0.00 | 0.84 | 0.15 | 94 | 1009.8 |
| 20260505084613 | 14 | 0 | 1.6 | 4.8 | 0.00 | 0.84 | 0.15 | 94 | 1009.8 |
| 20260505084056 | 14 | 360 | 0.0 | 4.8 | 0.00 | 0.84 | 0.15 | 94 | 1009.8 |
| 20260505083600 | 14 | 360 | 0.0 | 6.4 | 0.00 | 0.84 | 0.15 | 94 | 1009.8 |
| 20260505083112 | 14 | 0 | 3.2 | 8.0 | 0.00 | 0.84 | 0.15 | 95 | 1009.9 |
| 20260505082557 | 14 | 360 | 1.6 | 8.0 | 0.00 | 0.84 | 0.15 | 95 | 1009.9 |
| 20260505082057 | 14 | 360 | 1.6 | 6.4 | 0.00 | 0.84 | 0.15 | 94 | 1009.9 |
| 20260505081605 | 14 | 360 | 0.0 | 4.8 | 0.00 | 0.84 | 0.15 | 94 | 1010.0 |
| 20260505081058 | 14 | 360 | 1.6 | 4.8 | 0.00 | 0.84 | 0.15 | 95 | 1009.9 |
| 20260505080557 | 14 | 360 | 1.6 | 4.8 | 0.00 | 0.84 | 0.15 | 95 | 1010.0 |
| 20260505075558 | 13 | 242 | 1.6 | 6.4 | 0.00 | 0.84 | 0.15 | 95 | 1009.9 |
| 20260505075057 | 13 | 244 | 0.0 | 3.2 | 0.00 | 0.84 | 0.15 | 95 | 1010.0 |
| 20260505074559 | 13 | 0 | 0.0 | 4.8 | 0.00 | 0.84 | 0.15 | 94 | 1010.0 |
| 20260505074057 | 13 | 0 | 1.6 | 6.4 | 0.00 | 0.84 | 0.15 | 94 | 1010.0 |
| 20260505073557 | 13 | 360 | 1.6 | 6.4 | 0.00 | 0.84 | 0.15 | 94 | 1010.0 |
| 20260505073102 | 13 | 360 | 3.2 | 6.4 | 0.00 | 0.84 | 0.15 | 94 | 1010.0 |
| 20260505072558 | 13 | 0 | 1.6 | 6.4 | 0.00 | 0.84 | 0.15 | 94 | 1010.0 |
| 20260505072058 | 13 | 0 | 0.0 | 0.0 | 0.00 | 0.84 | 0.15 | 94 | 1010.0 |
| 20260505071615 | 13 | 0 | 0.0 | 0.0 | 0.00 | 0.84 | 0.15 | 94 | 1010.1 |
| 20260505071101 | 13 | 0 | 0.0 | 4.8 | 0.00 | 0.84 | 0.15 | 94 | 1010.0 |
| 20260505070558 | 13 | 0 | 0.0 | 4.8 | 0.00 | 0.84 | 0.15 | 94 | 1010.0 |
| 20260505070059 | 13 | 0 | 0.0 | 4.8 | 0.00 | 0.84 | 0.15 | 94 | 1010.1 |
| 20260505065557 | 13 | 360 | 0.0 | 3.2 | 0.03 | 0.84 | 0.15 | 94 | 1009.9 |
| 20260505065057 | 13 | 0 | 0.0 | 4.8 | 0.03 | 0.84 | 0.15 | 94 | 1010.0 |
| 20260505064603 | 13 | 360 | 0.0 | 4.8 | 0.03 | 0.84 | 0.15 | 94 | 1010.1 |
| 20260505064057 | 13 | 360 | 0.0 | 4.8 | 0.05 | 0.84 | 0.15 | 94 | 1010.1 |
| 20260505063600 | 13 | 0 | 1.6 | 4.8 | 0.05 | 0.84 | 0.15 | 94 | 1010.1 |
| 20260505063101 | 13 | 360 | 1.6 | 4.8 | 0.08 | 0.84 | 0.15 | 94 | 1010.1 |
| 20260505062557 | 13 | 360 | 0.0 | 4.8 | 0.08 | 0.84 | 0.15 | 94 | 1010.1 |
| 20260505062059 | 13 | 360 | 0.0 | 3.2 | 0.08 | 0.81 | 0.13 | 94 | 1010.2 |
| 20260505061608 | 13 | 0 | 0.0 | 3.2 | 0.08 | 0.81 | 0.13 | 94 | 1010.2 |
| 20260505061056 | 13 | 360 | 0.0 | 3.2 | 0.08 | 0.81 | 0.13 | 94 | 1010.2 |
| 20260505060558 | 13 | 0 | 0.0 | 3.2 | 0.08 | 0.81 | 0.13 | 94 | 1010.2 |
| 20260505055558 | 13 | 0 | 0.0 | 4.8 | 0.08 | 0.79 | 0.10 | 94 | 1010.1 |
| 20260505055059 | 13 | 0 | 0.0 | 4.8 | 0.08 | 0.79 | 0.10 | 94 | 1010.1 |
| 20260505054557 | 13 | 0 | 0.0 | 0.0 | 0.08 | 0.79 | 0.10 | 94 | 1010.2 |
| 20260505054057 | 13 | 0 | 0.0 | 0.0 | 0.05 | 0.76 | 0.08 | 94 | 1010.2 |
| 20260505053557 | 13 | 0 | 0.0 | 0.0 | 0.05 | 0.76 | 0.08 | 94 | 1010.1 |
| 20260505053107 | 13 | 0 | 0.0 | 0.0 | 0.03 | 0.74 | 0.08 | 94 | 1010.1 |
| 20260505052557 | 13 | 0 | 0.0 | 0.0 | 0.03 | 0.74 | 0.08 | 94 | 1010.1 |
| 20260505052057 | 13 | 0 | 0.0 | 0.0 | 0.00 | 0.74 | 0.05 | 94 | 1010.2 |
| 20260505051605 | 13 | 0 | 0.0 | 0.0 | 0.00 | 0.74 | 0.05 | 94 | 1010.1 |
| 20260505051057 | 13 | 0 | 0.0 | 0.0 | 0.00 | 0.74 | 0.05 | 94 | 1010.1 |
| 20260505050557 | 13 | 0 | 0.0 | 0.0 | 0.00 | 0.71 | 0.03 | 93 | 1010.2 |
| 20260505041602 | 13 | 0 | 0.0 | 0.0 | 0.00 | 0.71 | 0.03 | 93 | 1010.2 |
| 20260505041056 | 13 | 0 | 0.0 | 0.0 | 0.00 | 0.71 | 0.03 | 93 | 1010.2 |
| 20260505040556 | 13 | 0 | 0.0 | 0.0 | 0.00 | 0.71 | 0.03 | 93 | 1010.3 |
| 20260505040059 | 13 | 0 | 0.0 | 0.0 | 0.00 | 0.71 | 0.03 | 93 | 1010.2 |
| 20260505035556 | 13 | 0 | 0.0 | 0.0 | 0.00 | 0.71 | 0.03 | 93 | 1010.3 |
| 20260505035058 | 13 | 0 | 0.0 | 0.0 | 0.00 | 0.71 | 0.03 | 93 | 1010.3 |
| 20260505034554 | 13 | 0 | 0.0 | 0.0 | 0.00 | 0.71 | 0.03 | 93 | 1010.2 |
| 20260505034056 | 13 | 0 | 0.0 | 0.0 | 0.00 | 0.71 | 0.03 | 93 | 1010.2 |
| 20260505033556 | 13 | 0 | 0.0 | 0.0 | 0.00 | 0.71 | 0.03 | 93 | 1010.3 |
| 20260505033055 | 13 | 0 | 0.0 | 0.0 | 0.00 | 0.71 | 0.03 | 93 | 1010.3 |
| 20260505032556 | 13 | 0 | 0.0 | 0.0 | 0.00 | 0.71 | 0.03 | 93 | 1010.4 |
| 20260505032057 | 13 | 0 | 0.0 | 0.0 | 0.00 | 0.71 | 0.03 | 92 | 1010.4 |
| 20260505031556 | 13 | 0 | 0.0 | 0.0 | 0.00 | 0.71 | 0.03 | 92 | 1010.4 |
| 20260505031056 | 13 | 0 | 0.0 | 0.0 | 0.00 | 0.71 | 0.03 | 92 | 1010.5 |
| 20260505030556 | 13 | 0 | 0.0 | 0.0 | 0.00 | 0.71 | 0.03 | 92 | 1010.6 |
| 20260505030117 | 13 | 0 | 0.0 | 0.0 | 0.00 | 0.71 | 0.03 | 92 | 1010.6 |
| 20260505025556 | 13 | 0 | 0.0 | 0.0 | 0.00 | 0.71 | 0.03 | 92 | 1010.6 |
| 20260505025100 | 13 | 0 | 0.0 | 0.0 | 0.00 | 0.71 | 0.03 | 92 | 1010.5 |
| 20260505024559 | 13 | 0 | 0.0 | 0.0 | 0.00 | 0.71 | 0.03 | 92 | 1010.6 |
| 20260505024056 | 13 | 0 | 0.0 | 0.0 | 0.00 | 0.71 | 0.03 | 92 | 1010.6 |
| 20260505023557 | 13 | 0 | 0.0 | 0.0 | 0.00 | 0.71 | 0.03 | 92 | 1010.6 |
| 20260505023055 | 13 | 0 | 0.0 | 0.0 | 0.00 | 0.69 | 0.00 | 92 | 1010.6 |
| 20260505022557 | 13 | 0 | 0.0 | 0.0 | 0.00 | 0.69 | 0.00 | 92 | 1010.6 |
| 20260505022059 | 13 | 0 | 0.0 | 0.0 | 0.00 | 0.69 | 0.00 | 92 | 1010.7 |
| 20260505021557 | 13 | 0 | 0.0 | 0.0 | 0.00 | 0.69 | 0.00 | 92 | 1010.8 |
| 20260505021055 | 13 | 0 | 0.0 | 0.0 | 0.00 | 0.69 | 0.00 | 92 | 1010.8 |
| 20260505020556 | 13 | 0 | 0.0 | 0.0 | 0.00 | 0.69 | 0.00 | 92 | 1010.9 |
| 20260505015558 | 13 | 0 | 0.0 | 0.0 | 0.00 | 0.69 | 0.00 | 92 | 1010.9 |
| 20260505015100 | 13 | 0 | 0.0 | 0.0 | 0.00 | 0.69 | 0.00 | 92 | 1010.9 |
| 20260505014611 | 13 | 0 | 0.0 | 0.0 | 0.00 | 0.69 | 0.00 | 92 | 1011.0 |
| 20260505014059 | 13 | 0 | 0.0 | 0.0 | 0.00 | 0.69 | 0.00 | 92 | 1011.0 |
| 20260505013557 | 13 | 0 | 0.0 | 0.0 | 0.00 | 0.69 | 0.00 | 92 | 1010.9 |
| 20260505013101 | 13 | 0 | 0.0 | 0.0 | 0.00 | 0.69 | 0.00 | 92 | 1010.9 |
| 20260505012557 | 13 | 0 | 0.0 | 0.0 | 0.00 | 0.69 | 0.00 | 92 | 1010.9 |
| 20260505012057 | 13 | 0 | 0.0 | 0.0 | 0.00 | 0.69 | 0.00 | 92 | 1010.9 |
| 20260505011601 | 13 | 0 | 0.0 | 0.0 | 0.00 | 0.69 | 0.00 | 92 | 1011.0 |
| 20260505011101 | 13 | 0 | 0.0 | 0.0 | 0.00 | 0.69 | 0.00 | 92 | 1011.1 |
| 20260505010557 | 13 | 0 | 0.0 | 0.0 | 0.00 | 0.69 | 0.00 | 92 | 1011.2 |
| 20260505005601 | 13 | 0 | 0.0 | 0.0 | 0.00 | 0.69 | 0.00 | 92 | 1011.3 |
| 20260505005057 | 13 | 0 | 0.0 | 0.0 | 0.00 | 0.69 | 0.00 | 92 | 1011.2 |
| 20260505004559 | 13 | 0 | 0.0 | 0.0 | 0.00 | 0.69 | 0.00 | 92 | 1011.2 |
| 20260505004100 | 13 | 0 | 0.0 | 0.0 | 0.00 | 0.69 | 0.00 | 92 | 1011.3 |
| 20260505003556 | 13 | 0 | 0.0 | 0.0 | 0.00 | 0.69 | 0.00 | 92 | 1011.4 |
| 20260505003115 | 13 | 0 | 0.0 | 0.0 | 0.00 | 0.69 | 0.00 | 92 | 1011.4 |
| 20260505002556 | 13 | 0 | 0.0 | 0.0 | 0.00 | 0.69 | 0.00 | 92 | 1011.4 |
| 20260505002057 | 13 | 0 | 0.0 | 0.0 | 0.00 | 0.69 | 0.00 | 92 | 1011.5 |
| 20260505001612 | 13 | 0 | 0.0 | 0.0 | 0.00 | 0.69 | 0.00 | 92 | 1011.5 |
| 20260505001057 | 13 | 0 | 0.0 | 0.0 | 0.00 | 0.69 | 0.00 | 92 | 1011.6 |
| 20260505000557 | 13 | 0 | 0.0 | 0.0 | 0.00 | 0.69 | 0.00 | 92 | 1011.6 |
| 20260505000108 | 13 | 0 | 0.0 | 0.0 | 0.00 | 0.69 | 0.00 | 92 | 1011.7 |
| 20260504235557 | 13 | 0 | 0.0 | 0.0 | 0.00 | 0.69 | 0.00 | 92 | 1011.7 |
| 20260504235057 | 13 | 0 | 0.0 | 0.0 | 0.00 | 0.69 | 0.00 | 92 | 1011.8 |
| 20260504234558 | 13 | 0 | 0.0 | 0.0 | 0.00 | 0.69 | 0.00 | 92 | 1011.8 |
| 20260504234057 | 13 | 0 | 0.0 | 0.0 | 0.00 | 0.69 | 0.00 | 92 | 1011.9 |
| 20260504233557 | 13 | 0 | 0.0 | 0.0 | 0.00 | 0.69 | 0.00 | 92 | 1011.9 |
| 20260504233103 | 13 | 0 | 0.0 | 0.0 | 0.00 | 0.69 | 0.00 | 92 | 1011.9 |
| 20260504232559 | 13 | 0 | 0.0 | 0.0 | 0.00 | 0.69 | 0.00 | 92 | 1011.9 |
| 20260504232059 | 13 | 0 | 0.0 | 0.0 | 0.00 | 0.69 | 0.00 | 92 | 1012.0 |
| 20260504231559 | 13 | 0 | 0.0 | 0.0 | 0.00 | 0.69 | 0.00 | 92 | 1012.0 |
| 20260504231056 | 13 | 0 | 0.0 | 0.0 | 0.00 | 0.69 | 0.00 | 92 | 1012.1 |
| 20260504230600 | 13 | 0 | 0.0 | 0.0 | 0.00 | 0.69 | 0.00 | 92 | 1012.1 |
| 20260504230059 | 13 | 0 | 0.0 | 0.0 | 0.00 | 0.69 | 0.00 | 92 | 1012.1 |
| 20260504225557 | 13 | 0 | 0.0 | 0.0 | 0.00 | 0.69 | 0.00 | 92 | 1012.1 |
| 20260504225056 | 13 | 0 | 0.0 | 0.0 | 0.03 | 0.69 | 0.00 | 92 | 1012.1 |
| 20260504224559 | 13 | 0 | 0.0 | 0.0 | 0.03 | 0.69 | 0.00 | 92 | 1012.2 |
| 20260504224100 | 13 | 0 | 0.0 | 0.0 | 0.00 | 0.66 | 0.00 | 92 | 1012.2 |
| 20260504223601 | 13 | 0 | 0.0 | 0.0 | 0.03 | 0.66 | 0.00 | 92 | 1012.1 |
| 20260504223117 | 13 | 0 | 0.0 | 0.0 | 0.03 | 0.66 | 0.00 | 91 | 1012.2 |
| 20260504222557 | 13 | 0 | 0.0 | 0.0 | 0.03 | 0.66 | 0.00 | 91 | 1012.3 |
| 20260504222057 | 13 | 0 | 0.0 | 0.0 | 0.03 | 0.66 | 0.00 | 91 | 1012.4 |
| 20260504221555 | 13 | 0 | 0.0 | 0.0 | 0.03 | 0.66 | 0.00 | 91 | 1012.4 |
| 20260504221057 | 14 | 0 | 0.0 | 0.0 | 0.03 | 0.66 | 0.00 | 91 | 1012.5 |
| 20260504220557 | 14 | 0 | 0.0 | 0.0 | 0.03 | 0.66 | 0.00 | 91 | 1012.6 |
| 20260504215558 | 14 | 0 | 0.0 | 1.6 | 0.05 | 0.66 | 0.66 | 91 | 1012.8 |
| 20260504215057 | 14 | 0 | 0.0 | 3.2 | 0.03 | 0.64 | 0.64 | 91 | 1012.8 |
| 20260504214559 | 14 | 0 | 0.0 | 3.2 | 0.05 | 0.64 | 0.64 | 91 | 1012.8 |
| 20260504214100 | 14 | 0 | 0.0 | 3.2 | 0.05 | 0.64 | 0.64 | 91 | 1012.9 |
| 20260504213556 | 14 | 0 | 0.0 | 3.2 | 0.03 | 0.64 | 0.64 | 91 | 1012.9 |
| 20260504213109 | 14 | 0 | 0.0 | 3.2 | 0.03 | 0.64 | 0.64 | 91 | 1012.9 |
| 20260504212556 | 14 | 0 | 0.0 | 3.2 | 0.03 | 0.64 | 0.64 | 91 | 1012.9 |
| 20260504212058 | 14 | 0 | 0.0 | 0.0 | 0.05 | 0.64 | 0.64 | 91 | 1012.9 |
| 20260504211649 | 14 | 0 | 0.0 | 0.0 | 0.08 | 0.64 | 0.64 | 91 | 1013.0 |
| 20260504211059 | 14 | 0 | 0.0 | 0.0 | 0.08 | 0.64 | 0.64 | 90 | 1013.1 |
| 20260504210601 | 14 | 0 | 0.0 | 0.0 | 0.08 | 0.64 | 0.64 | 90 | 1013.1 |
| 20260504210056 | 14 | 0 | 0.0 | 1.6 | 0.08 | 0.64 | 0.64 | 90 | 1013.0 |
| 20260504205601 | 14 | 0 | 0.0 | 1.6 | 0.08 | 0.61 | 0.61 | 90 | 1013.1 |
| 20260504205056 | 14 | 360 | 0.0 | 4.8 | 0.08 | 0.61 | 0.61 | 90 | 1013.0 |
| 20260504204603 | 14 | 0 | 0.0 | 4.8 | 0.05 | 0.58 | 0.58 | 90 | 1013.0 |
| 20260504204057 | 14 | 360 | 1.6 | 4.8 | 0.08 | 0.58 | 0.58 | 90 | 1013.1 |
| 20260504203556 | 14 | 0 | 0.0 | 4.8 | 0.08 | 0.58 | 0.58 | 90 | 1013.2 |
| 20260504203108 | 14 | 360 | 1.6 | 4.8 | 0.15 | 0.58 | 0.58 | 89 | 1013.3 |
| 20260504202557 | 14 | 360 | 0.0 | 0.0 | 0.18 | 0.58 | 0.58 | 89 | 1013.3 |
| 20260504202057 | 14 | 0 | 0.0 | 0.0 | 0.20 | 0.56 | 0.56 | 89 | 1013.1 |
| 20260504201612 | 14 | 0 | 0.0 | 0.0 | 0.23 | 0.56 | 0.56 | 89 | 1013.2 |
| 20260504201056 | 14 | 0 | 0.0 | 0.0 | 0.28 | 0.56 | 0.56 | 88 | 1013.1 |
| 20260504200556 | 14 | 0 | 0.0 | 0.0 | 0.30 | 0.56 | 0.56 | 88 | 1013.1 |
| 20260504200057 | 14 | 0 | 0.0 | 0.0 | 0.36 | 0.53 | 0.53 | 88 | 1013.1 |
| 20260504195558 | 14 | 0 | 0.0 | 0.0 | 0.38 | 0.53 | 0.53 | 87 | 1013.0 |
| 20260504195057 | 15 | 0 | 0.0 | 0.0 | 0.43 | 0.53 | 0.53 | 87 | 1013.1 |
| 20260504194557 | 15 | 0 | 0.0 | 0.0 | 0.46 | 0.53 | 0.53 | 87 | 1013.0 |
| 20260504194057 | 15 | 0 | 0.0 | 3.2 | 0.46 | 0.51 | 0.51 | 87 | 1012.9 |
| 20260504193557 | 15 | 0 | 0.0 | 3.2 | 0.46 | 0.48 | 0.48 | 86 | 1012.8 |
| 20260504193107 | 15 | 360 | 0.0 | 4.8 | 0.43 | 0.43 | 0.43 | 85 | 1012.7 |
| 20260504192556 | 15 | 0 | 0.0 | 4.8 | 0.38 | 0.38 | 0.38 | 85 | 1012.9 |
| 20260504192056 | 15 | 0 | 0.0 | 9.7 | 0.36 | 0.36 | 0.36 | 85 | 1012.9 |
| 20260504191611 | 15 | 0 | 1.6 | 9.7 | 0.30 | 0.30 | 0.30 | 84 | 1012.8 |
| 20260504191058 | 15 | 360 | 1.6 | 14.5 | 0.28 | 0.28 | 0.28 | 84 | 1012.8 |
| 20260504190558 | 15 | 360 | 4.8 | 16.1 | 0.23 | 0.23 | 0.23 | 83 | 1012.8 |
| 20260504190108 | 15 | 360 | 6.4 | 17.7 | 0.18 | 0.18 | 0.18 | 82 | 1012.7 |
| 20260504185557 | 16 | 360 | 9.7 | 22.5 | 0.13 | 0.13 | 0.13 | 80 | 1012.8 |
| 20260504185100 | 16 | 360 | 9.7 | 22.5 | 0.08 | 0.08 | 0.08 | 79 | 1012.7 |
| 20260504184559 | 17 | 360 | 12.9 | 29.0 | 0.08 | 0.08 | 0.08 | 77 | 1012.5 |
| 20260504184057 | 17 | 360 | 14.5 | 29.0 | 0.03 | 0.03 | 0.03 | 74 | 1012.4 |
| 20260504183600 | 18 | 360 | 14.5 | 29.0 | 0.00 | 0.00 | 0.00 | 72 | 1012.4 |
| 20260504183057 | 18 | 234 | 4.8 | 9.7 | 0.00 | 0.00 | 0.00 | 70 | 1012.1 |
| 20260504182558 | 19 | 0 | 0.0 | 1.6 | 0.00 | 0.00 | 0.00 | 66 | 1011.9 |
| 20260504182057 | 19 | 0 | 0.0 | 9.7 | 0.00 | 0.00 | 0.00 | 63 | 1011.7 |
| 20260504181601 | 19 | 0 | 0.0 | 9.7 | 0.00 | 0.00 | 0.00 | 62 | 1011.7 |
| 20260504181058 | 19 | 0 | 1.6 | 8.0 | 0.00 | 0.00 | 0.00 | 62 | 1011.6 |
| 20260504180557 | 19 | 70 | 3.2 | 14.5 | 0.00 | 0.00 | 0.00 | 61 | 1011.6 |
| 20260504180059 | 19 | 76 | 4.8 | 14.5 | 0.00 | 0.00 | 0.00 | 60 | 1011.5 |
| 20260504175559 | 20 | 346 | 8.0 | 14.5 | 0.00 | 0.00 | 0.00 | 59 | 1011.4 |
| 20260504175057 | 20 | 25 | 3.2 | 9.7 | 0.00 | 0.00 | 0.00 | 58 | 1011.4 |
| 20260504174556 | 20 | 340 | 3.2 | 9.7 | 0.00 | 0.00 | 0.00 | 58 | 1011.3 |
| 20260504174058 | 20 | 346 | 4.8 | 14.5 | 0.00 | 0.00 | 0.00 | 58 | 1011.4 |
| 20260504173600 | 20 | 34 | 3.2 | 14.5 | 0.00 | 0.00 | 0.00 | 57 | 1011.4 |
| 20260504173059 | 20 | 24 | 8.0 | 16.1 | 0.00 | 0.00 | 0.00 | 57 | 1011.4 |
| 20260504172557 | 20 | 32 | 8.0 | 17.7 | 0.00 | 0.00 | 0.00 | 56 | 1011.4 |
| 20260504172057 | 20 | 29 | 8.0 | 17.7 | 0.00 | 0.00 | 0.00 | 56 | 1011.4 |
| 20260504171557 | 21 | 21 | 6.4 | 14.5 | 0.00 | 0.00 | 0.00 | 54 | 1011.4 |
| 20260504171057 | 21 | 44 | 3.2 | 12.9 | 0.00 | 0.00 | 0.00 | 54 | 1011.4 |
| 20260504170558 | 21 | 41 | 4.8 | 12.9 | 0.00 | 0.00 | 0.00 | 53 | 1011.4 |
| 20260504151101 | 22 | 265 | 6.4 | 16.1 | 0.00 | 0.00 | 0.00 | 49 | 1011.6 |
| 20260504150557 | 22 | 325 | 4.8 | 12.9 | 0.00 | 0.00 | 0.00 | 48 | 1011.7 |
| 20260504141056 | 22 | 238 | 4.8 | 12.9 | 0.00 | 0.00 | 0.00 | 49 | 1011.8 |
| 20260504140556 | 22 | 0 | 3.2 | 12.9 | 0.00 | 0.00 | 0.00 | 47 | 1011.9 |
| 20260504130557 | 23 | 290 | 4.8 | 14.5 | 0.00 | 0.00 | 0.00 | 49 | 1012.4 |
| 20260504110556 | 21 | 248 | 8.0 | 16.1 | 0.00 | 0.00 | 0.00 | 53 | 1012.9 |
| 20260504100557 | 21 | 223 | 4.8 | 16.1 | 0.00 | 0.00 | 0.00 | 60 | 1013.2 |